SR9NLI Weather Reports


time (UTC)temp
F
wind
direction
speed
knots
gust
knots
rain 1hr
in
rain 24hr
in
rain mn
in
humidity
%
barometer
mb
20260904050857 61 228 1.7 9.6 0.00 0.00 0.00 100 959.2
20260904050756 61 219 0.9 9.6 0.00 0.00 0.00 100 959.2
20260904050641 61 0 0.9 6.1 0.00 0.00 0.00 100 959.2
20260904050437 61 0 0.9 6.1 0.00 0.00 0.00 100 959.3
20260904050233 61 211 0.9 6.1 0.00 0.00 0.00 100 959.2
20260904050133 61 219 0.9 5.2 0.00 0.00 0.00 100 959.2
20260904050031 61 215 0.9 5.2 0.00 0.00 0.00 100 959.2
20260904045827 61 216 1.7 6.1 0.00 0.00 0.00 100 959.2
20260904045624 61 212 1.7 7.0 0.00 0.00 0.00 100 959.2
20260904045524 61 211 1.7 7.0 0.00 0.00 0.00 100 959.3
20260904045422 61 205 1.7 7.0 0.00 0.00 0.00 100 959.2
20260904045219 61 207 1.7 7.0 0.00 0.00 0.00 100 959.2
20260904045016 60 214 1.7 7.8 0.00 0.00 0.00 100 959.2
20260904044915 60 213 1.7 7.8 0.00 0.00 0.00 100 959.2
20260904044813 60 214 1.7 7.8 0.00 0.00 0.00 100 959.2
20260904044610 60 214 0.9 5.2 0.00 0.00 0.00 100 959.1
20260904044406 60 214 0.9 5.2 0.00 0.00 0.00 100 959.1
20260904044306 60 218 0.9 5.2 0.00 0.00 0.00 100 959.1
20260904044203 60 220 1.7 6.1 0.00 0.00 0.00 100 959.1
20260904044000 60 213 1.7 6.1 0.00 0.00 0.00 100 959.1
20260904043758 60 219 1.7 4.3 0.00 0.00 0.00 100 959.0
20260904043657 60 228 0.9 6.1 0.00 0.00 0.00 100 959.0
20260904043554 60 232 0.9 6.1 0.00 0.00 0.00 100 959.0
20260904043351 60 216 0.9 7.0 0.00 0.00 0.00 100 959.0
20260904043148 60 217 1.7 7.8 0.00 0.00 0.00 100 959.1
20260904042945 61 219 1.7 7.8 0.00 0.00 0.00 100 959.0
20260904042742 61 225 2.6 12.2 0.00 0.00 0.00 100 959.0
20260904042538 61 247 3.5 12.2 0.00 0.00 0.00 100 959.1
20260904042437 61 256 3.5 12.2 0.00 0.00 0.00 100 959.0
20260904042335 61 258 4.3 8.7 0.00 0.00 0.00 100 959.0
20260904042131 61 255 4.3 12.2 0.00 0.00 0.00 100 959.2
20260904041928 61 255 5.2 12.2 0.00 0.00 0.00 100 959.2
20260904041828 61 251 5.2 13.9 0.00 0.00 0.00 100 959.2
20260904041725 61 253 4.3 13.9 0.00 0.00 0.00 100 959.2
20260904041522 61 251 3.5 13.9 0.00 0.00 0.00 100 959.3
20260904041318 61 254 3.5 12.2 0.00 0.00 0.00 100 959.3
20260904041116 61 259 5.2 13.9 0.00 0.00 0.00 100 959.3
20260904040913 61 258 6.1 13.9 0.00 0.00 0.00 100 959.2
20260904040709 61 253 6.1 12.2 0.00 0.00 0.00 100 959.4
20260904040609 61 254 5.2 10.4 0.00 0.00 0.00 100 959.3
20260904040507 61 253 4.3 10.4 0.00 0.00 0.00 100 959.3
20260904040304 61 255 3.5 9.6 0.00 0.00 0.00 100 959.2
20260904040101 61 253 2.6 8.7 0.00 0.00 0.00 100 959.2
20260904040000 61 252 3.5 9.6 0.00 0.00 0.00 100 959.2
20260904035857 61 250 3.5 9.6 0.00 0.00 0.00 100 959.1
20260904035654 61 251 4.3 9.6 0.00 0.00 0.00 100 959.0
20260904035451 61 251 3.5 8.7 0.00 0.00 0.00 100 959.0
20260904035350 61 252 3.5 8.7 0.00 0.00 0.00 100 959.1
20260904035248 61 256 3.5 10.4 0.00 0.00 0.00 100 959.1
20260904035044 62 252 3.5 10.4 0.00 0.00 0.00 100 959.2
20260904034843 62 253 4.3 9.6 0.00 0.00 0.00 100 959.2
20260904034742 61 258 4.3 9.6 0.00 0.00 0.00 100 959.2
20260904034639 62 258 3.5 11.3 0.00 0.00 0.00 100 959.2
20260904034436 62 263 4.3 13.9 0.00 0.00 0.00 100 959.2
20260904034233 62 265 6.1 13.9 0.00 0.00 0.00 100 959.2
20260904034132 62 263 6.1 13.9 0.00 0.00 0.00 100 959.2
20260904034030 62 258 6.1 13.9 0.00 0.00 0.00 100 959.2
20260904033826 62 252 4.3 13.9 0.00 0.00 0.00 100 959.2
20260904033623 62 251 5.2 13.9 0.00 0.00 0.00 100 959.1
20260904033522 62 256 5.2 13.9 0.00 0.00 0.00 100 959.1
20260904033421 62 256 5.2 12.2 0.00 0.00 0.00 100 959.2
20260904033217 62 254 6.1 18.2 0.00 0.00 0.00 100 959.2
20260904033015 62 248 4.3 18.2 0.00 0.00 0.00 100 959.0
20260904032914 62 241 4.3 18.2 0.00 0.00 0.00 100 959.1
20260904032811 62 243 3.5 11.3 0.00 0.00 0.00 100 959.0
20260904032608 61 249 3.5 11.3 0.00 0.00 0.00 100 959.0
20260904032404 62 257 3.5 11.3 0.00 0.00 0.00 100 959.0
20260904032305 62 256 3.5 10.4 0.00 0.00 0.00 100 959.0
20260904032201 62 256 3.5 10.4 0.00 0.00 0.00 100 959.1
20260904031958 62 259 4.3 13.9 0.00 0.00 0.00 100 959.0
20260904031755 62 262 6.1 13.9 0.00 0.00 0.00 100 959.1
20260904031551 62 260 5.2 13.0 0.00 0.00 0.00 100 959.1
20260904031348 61 259 4.3 9.6 0.00 0.00 0.00 100 959.1
20260904031144 61 260 4.3 9.6 0.00 0.00 0.00 100 959.2
20260904031043 61 257 1.7 9.6 0.00 0.00 0.00 100 959.2
20260904030941 61 257 1.7 7.8 0.00 0.00 0.00 100 959.2
20260904030738 61 217 0.9 5.2 0.00 0.00 0.00 100 959.2
20260904030535 61 248 2.6 7.0 0.00 0.00 0.00 100 959.1
20260904030434 61 253 2.6 7.0 0.00 0.00 0.00 100 959.1
20260904030331 61 250 2.6 7.0 0.00 0.00 0.00 100 959.1
20260904030128 61 221 1.7 6.1 0.00 0.00 0.00 100 959.1
20260904025925 61 257 4.3 13.0 0.00 0.00 0.00 100 959.1
20260904025721 62 267 5.2 13.0 0.00 0.00 0.00 100 959.3
20260904025518 62 264 4.3 8.7 0.00 0.00 0.00 100 959.2
20260904025316 62 264 3.5 8.7 0.00 0.00 0.00 100 959.2
20260904025215 61 269 3.5 8.7 0.00 0.00 0.00 100 959.2
20260904025112 61 265 3.5 8.7 0.00 0.00 0.00 100 959.2
20260904024908 61 263 3.5 9.6 0.00 0.00 0.00 100 959.1
20260904024705 61 260 2.6 8.7 0.00 0.00 0.00 100 959.2
20260904024604 60 250 1.7 7.8 0.00 0.00 0.00 100 959.1
20260904024502 61 243 0.9 6.1 0.00 0.00 0.00 100 959.2
20260904024259 61 247 1.7 7.0 0.00 0.00 0.00 100 959.3
20260904024055 61 254 3.5 9.6 0.00 0.00 0.00 100 959.2
20260904023954 61 252 3.5 9.6 0.00 0.00 0.00 100 959.3
20260904023852 60 252 2.6 9.6 0.00 0.00 0.00 100 959.2
20260904023649 60 244 2.6 7.8 0.00 0.00 0.00 100 959.2
20260904023445 60 239 2.6 7.8 0.00 0.00 0.00 100 959.1
20260904023345 60 233 1.7 4.3 0.00 0.00 0.00 100 959.2
20260904023243 60 237 1.7 11.3 0.00 0.00 0.00 100 959.0
20260904023040 60 234 1.7 11.3 0.00 0.00 0.00 100 959.2
20260904022836 60 249 1.7 6.1 0.00 0.00 0.00 100 959.1
20260904022722 60 256 0.9 6.1 0.00 0.00 0.00 100 959.0
20260904022620 59 0 0.9 3.5 0.00 0.00 0.00 100 959.0
20260904022417 59 0 0.9 5.2 0.00 0.00 0.00 100 959.1
20260904022214 59 0 0.9 5.2 0.00 0.00 0.00 100 959.1
20260904022010 59 0 0.9 3.5 0.00 0.00 0.00 100 959.0
20260904021807 59 0 0.0 3.5 0.00 0.00 0.00 100 959.1
20260904021604 59 0 0.9 3.5 0.00 0.00 0.00 100 958.9
20260904021503 60 0 0.9 3.5 0.00 0.00 0.00 100 958.9
20260904021400 60 0 0.9 3.5 0.00 0.00 0.00 100 959.0
20260904021157 60 236 1.7 8.7 0.00 0.00 0.00 100 959.0
20260904020954 60 237 1.7 8.7 0.00 0.00 0.00 100 958.9
20260904020853 60 235 1.7 8.7 0.00 0.00 0.00 100 958.9
20260904020751 60 231 1.7 7.0 0.00 0.00 0.00 100 958.8
20260904020547 60 225 1.7 7.0 0.00 0.00 0.00 100 959.0
20260904020344 60 223 1.7 7.0 0.00 0.00 0.00 100 959.0
20260904020243 60 227 1.7 7.0 0.00 0.00 0.00 100 959.0
20260904020141 60 230 1.7 7.8 0.00 0.00 0.00 100 959.0
20260904015938 61 233 1.7 7.8 0.00 0.00 0.00 100 959.0
20260904015735 61 227 1.7 7.8 0.00 0.00 0.00 100 959.0
20260904015634 61 234 1.7 7.8 0.00 0.00 0.00 100 959.0
20260904015531 61 233 1.7 7.8 0.00 0.00 0.00 100 959.0
20260904015328 61 230 1.7 8.7 0.00 0.00 0.00 100 959.0
20260904015125 61 220 1.7 8.7 0.00 0.00 0.00 100 959.0
20260904015024 61 219 1.7 8.7 0.00 0.00 0.00 100 959.1
20260904014922 61 215 1.7 8.7 0.00 0.00 0.00 100 959.1
20260904014719 61 221 1.7 8.7 0.00 0.00 0.00 100 959.1
20260904014516 62 237 2.6 10.4 0.00 0.00 0.00 100 959.0
20260904014414 62 244 3.5 10.4 0.00 0.00 0.00 100 959.1
20260904014313 62 246 4.3 13.0 0.00 0.00 0.00 100 959.1
20260904014109 62 247 4.3 13.0 0.00 0.00 0.00 100 959.2
20260904013906 61 241 2.6 10.4 0.00 0.00 0.00 100 959.2
20260904013806 61 241 2.6 8.7 0.00 0.00 0.00 100 959.1
20260904013703 61 234 2.6 8.7 0.00 0.00 0.00 100 959.1
20260904013459 60 259 2.6 12.2 0.00 0.00 0.00 100 959.1
20260904013257 59 283 3.5 9.6 0.00 0.00 0.00 100 959.1
20260904013156 59 301 2.6 9.6 0.00 0.00 0.00 100 959.1
20260904013054 58 304 2.6 9.6 0.00 0.00 0.00 100 959.1
20260904012851 58 326 1.7 5.2 0.00 0.00 0.00 100 959.1
20260904012647 59 299 3.5 7.0 0.00 0.00 0.00 100 959.1
20260904012546 61 291 4.3 7.8 0.00 0.00 0.00 100 959.1
20260904012444 62 274 4.3 7.8 0.00 0.00 0.00 100 959.1
20260904012241 62 267 5.2 9.6 0.00 0.00 0.00 100 959.0
20260904012039 62 260 4.3 10.4 0.00 0.00 0.00 100 959.1
20260904011938 62 255 4.3 10.4 0.00 0.00 0.00 100 959.1
20260904011836 62 253 4.3 10.4 0.00 0.00 0.00 100 958.9
20260904011632 62 236 2.6 11.3 0.00 0.00 0.00 100 959.0
20260904011429 62 233 1.7 11.3 0.00 0.00 0.00 100 959.0
20260904011328 62 239 2.6 13.9 0.00 0.00 0.00 100 959.0
20260904011225 62 240 2.6 13.9 0.00 0.00 0.00 100 959.0
20260904011022 62 226 1.7 13.9 0.00 0.00 0.00 100 958.9
20260904010819 62 201 1.7 7.0 0.00 0.00 0.00 100 958.9
20260904010718 62 213 1.7 7.8 0.00 0.00 0.00 100 958.9
20260904010616 62 216 2.6 7.8 0.00 0.00 0.00 100 959.0
20260904010413 62 222 2.6 8.7 0.00 0.00 0.00 100 959.1
20260904010211 61 222 1.7 8.7 0.00 0.00 0.00 100 959.1
20260904010110 61 231 0.9 7.8 0.00 0.00 0.00 100 959.2
20260904010007 61 0 0.9 5.2 0.00 0.00 0.00 100 959.2
20260904005804 61 257 0.9 5.2 0.00 0.00 0.00 100 959.1
20260904005601 61 0 0.9 4.3 0.00 0.00 0.00 100 959.2
20260904005500 61 235 0.9 4.3 0.00 0.00 0.00 100 959.1
20260904005357 61 0 0.9 4.3 0.00 0.00 0.00 100 959.2
20260904005154 62 237 0.9 4.3 0.00 0.00 0.00 100 959.2
20260904004951 62 240 1.7 10.4 0.00 0.00 0.00 100 959.3
20260904004748 62 235 2.6 10.4 0.00 0.00 0.00 100 959.1
20260904004545 62 225 1.7 7.8 0.00 0.00 0.00 100 959.1
20260904004342 62 239 1.7 7.8 0.00 0.00 0.00 100 959.2
20260904004242 62 239 1.7 7.8 0.00 0.00 0.00 100 959.3
20260904004139 62 238 1.7 7.8 0.00 0.00 0.00 100 959.3
20260904003936 62 243 1.7 7.8 0.00 0.00 0.00 100 959.3
20260904003733 62 252 1.7 6.1 0.00 0.00 0.00 100 959.3
20260904003632 62 251 1.7 4.3 0.00 0.00 0.00 100 959.3
20260904003529 62 250 1.7 4.3 0.00 0.00 0.00 100 959.4
20260904003326 62 247 1.7 7.0 0.00 0.00 0.00 100 959.4
20260904003124 62 245 1.7 7.0 0.00 0.00 0.00 100 959.4
20260904003023 62 241 1.7 7.0 0.00 0.00 0.00 100 959.4
20260904002921 62 225 1.7 6.1 0.00 0.00 0.00 100 959.4
20260904002718 62 221 0.9 6.1 0.00 0.00 0.00 100 959.4
20260904002515 62 230 0.9 6.1 0.00 0.00 0.00 100 959.4
20260904002414 62 230 0.9 6.1 0.00 0.00 0.00 100 959.4
20260904002312 62 0 0.9 4.3 0.00 0.00 0.00 100 959.3
20260904002108 62 0 0.9 4.3 0.00 0.00 0.00 100 959.2
20260904001905 62 219 0.9 7.0 0.00 0.00 0.00 100 959.3
20260904001805 62 222 0.9 7.0 0.00 0.00 0.00 100 959.3
20260904001702 62 221 0.9 7.0 0.00 0.00 0.00 100 959.4
20260904001459 63 0 0.9 4.3 0.00 0.00 0.00 100 959.4
20260904001256 63 220 0.9 4.3 0.00 0.00 0.00 100 959.4
20260904001155 63 227 0.9 4.3 0.00 0.00 0.00 100 959.4
20260904001053 63 236 0.9 4.3 0.00 0.00 0.00 100 959.4
20260904000851 63 243 0.9 4.3 0.00 0.00 0.00 100 959.5
20260904000647 63 237 0.9 4.3 0.00 0.00 0.00 100 959.5
20260904000547 63 235 1.7 5.2 0.00 0.00 0.00 100 959.5
20260904000444 63 238 1.7 5.2 0.00 0.00 0.00 100 959.5
20260904000241 63 241 1.7 9.6 0.00 0.00 0.00 100 959.5
20260904000038 64 248 2.6 10.4 0.00 0.00 0.00 100 959.5
20260903235937 64 245 2.6 10.4 0.00 0.00 0.00 100 959.5
20260903235741 64 249 2.6 7.8 0.00 0.00 0.00 100 959.4
20260903235537 64 248 3.5 7.8 0.00 0.00 0.00 100 959.5
20260903235438 64 248 3.5 8.7 0.00 0.00 0.00 100 959.4
20260903235334 64 247 3.5 8.7 0.00 0.00 0.00 100 959.5
20260903235131 64 241 1.7 8.7 0.00 0.00 0.00 100 959.4
20260903234927 64 218 1.7 7.8 0.00 0.00 0.00 100 959.6
20260903234827 64 214 1.7 7.8 0.00 0.00 0.00 100 959.5
20260903234724 64 210 1.7 7.8 0.00 0.00 0.00 100 959.5
20260903234521 64 235 2.6 13.9 0.00 0.00 0.00 100 959.5
20260903234317 64 237 2.6 13.9 0.00 0.00 0.00 100 959.5
20260903234203 64 228 2.6 9.6 0.00 0.00 0.00 100 959.6
20260903234100 64 234 2.6 9.6 0.00 0.00 0.00 100 959.6
20260903233857 64 237 3.5 9.6 0.00 0.00 0.00 100 959.6
20260903233654 64 238 3.5 12.2 0.00 0.00 0.00 100 959.6
20260903233553 64 233 2.6 12.2 0.00 0.00 0.00 100 959.7
20260903233451 64 229 2.6 12.2 0.00 0.00 0.00 100 959.7
20260903233247 64 253 4.3 13.0 0.00 0.00 0.00 100 959.7
20260903233045 64 256 5.2 13.0 0.00 0.00 0.00 100 959.8
20260903232944 65 256 4.3 13.0 0.00 0.00 0.00 100 959.7
20260903232842 64 255 4.3 11.3 0.00 0.00 0.00 100 959.7
20260903232639 65 268 6.1 15.6 0.00 0.00 0.00 100 959.9
20260903232436 65 264 5.2 15.6 0.00 0.00 0.00 100 959.7
20260903232335 65 259 4.3 11.3 0.00 0.00 0.00 100 959.9
20260903232233 65 262 5.2 11.3 0.00 0.00 0.00 100 959.9
20260903232029 65 282 7.0 15.6 0.00 0.00 0.00 100 959.9
20260903231826 65 282 7.0 15.6 0.00 0.00 0.00 100 959.9
20260903231725 65 278 6.1 15.6 0.00 0.00 0.00 100 959.9
20260903231623 65 281 6.1 12.2 0.00 0.00 0.00 100 959.9
20260903231419 65 284 8.7 15.6 0.00 0.00 0.00 100 960.0
20260903231217 65 293 11.3 23.5 0.00 0.00 0.00 100 959.9
20260903231116 65 292 12.2 23.5 0.00 0.00 0.00 100 959.9
20260903231014 65 290 12.2 23.5 0.00 0.00 0.00 100 960.0
20260903230811 65 285 7.8 15.6 0.00 0.00 0.00 100 960.0
20260903230607 64 286 6.1 10.4 0.00 0.00 0.00 100 960.1
20260903230507 65 294 6.1 11.3 0.00 0.00 0.00 100 960.1
20260903230404 64 291 6.1 11.3 0.00 0.00 0.00 100 959.9
20260903230201 65 287 8.7 20.0 0.00 0.00 0.00 100 959.9
20260903225958 66 286 11.3 20.0 0.00 0.00 0.00 100 959.6
20260903225858 66 287 12.2 15.6 0.00 0.00 0.00 100 959.6
20260903225756 66 286 10.4 15.6 0.00 0.00 0.00 100 959.8
20260903225553 66 284 10.4 20.0 0.00 0.00 0.00 100 959.8
20260903225350 66 283 8.7 20.0 0.00 0.00 0.00 100 959.8
20260903225249 66 282 9.6 17.4 0.00 0.00 0.00 100 959.8
20260903225146 66 274 8.7 17.4 0.00 0.00 0.00 100 959.7
20260903224943 66 270 8.7 17.4 0.00 0.00 0.00 100 959.9
20260903224741 66 282 9.6 16.5 0.00 0.00 0.00 100 959.8
20260903224640 66 275 8.7 18.2 0.00 0.00 0.00 100 959.9
20260903224537 65 271 7.8 18.2 0.00 0.00 0.00 100 959.9
20260903224334 65 264 6.1 18.2 0.00 0.00 0.00 100 960.0
20260903224131 64 279 6.1 13.9 0.00 0.00 0.00 100 960.0
20260903224030 64 282 7.8 13.9 0.00 0.00 0.00 100 959.9
20260903223928 64 284 7.8 15.6 0.00 0.00 0.00 100 960.0
20260903223725 63 289 7.8 15.6 0.00 0.00 0.00 100 959.9
20260903223522 61 312 3.5 9.6 0.00 0.00 0.00 100 959.9
20260903223421 60 309 3.5 10.4 0.00 0.00 0.00 100 960.1
20260903223319 60 302 3.5 13.0 0.00 0.00 0.00 100 959.9
20260903223115 63 282 4.3 13.0 0.00 0.00 0.00 100 959.9
20260903222912 64 276 5.2 10.4 0.00 0.00 0.00 100 960.0
20260903222811 63 270 5.2 10.4 0.00 0.00 0.00 100 959.9
20260903222709 63 265 4.3 10.4 0.00 0.00 0.00 100 960.0
20260903222506 61 292 3.5 9.6 0.00 0.00 0.00 100 960.1
20260903222305 61 286 5.2 12.2 0.00 0.00 0.00 100 960.0
20260903222202 61 288 5.2 12.2 0.00 0.00 0.00 100 960.1
20260903222100 61 299 5.2 12.2 0.00 0.00 0.00 100 960.0
20260903221857 59 319 3.5 7.8 0.00 0.00 0.00 100 960.1
20260903221653 60 292 4.3 7.8 0.00 0.00 0.00 100 960.1
20260903221552 61 285 4.3 8.7 0.00 0.00 0.00 100 960.1
20260903221450 59 283 4.3 8.7 0.00 0.00 0.00 100 960.1
20260903221247 59 289 3.5 8.7 0.00 0.00 0.00 100 960.1
20260903221044 58 0 1.7 4.3 0.00 0.00 0.00 100 960.2
20260903220943 56 0 0.9 4.3 0.00 0.00 0.00 100 960.1
20260903220840 56 0 0.9 2.6 0.00 0.00 0.00 100 960.2
20260903220638 56 351 1.7 3.5 0.00 0.00 0.00 100 960.2
20260903220435 57 350 1.7 3.5 0.00 0.00 0.00 100 960.1
20260903220334 57 343 1.7 2.6 0.00 0.00 0.00 100 960.1
20260903220231 57 332 1.7 3.5 0.00 0.00 0.00 100 960.2
20260903220029 56 296 1.7 5.2 0.00 0.00 0.00 100 960.0
20260903215826 57 279 1.7 5.2 0.00 0.00 0.00 100 960.1
20260903215725 57 290 1.7 5.2 0.00 0.00 0.00 100 960.0
20260903215623 57 0 1.7 3.5 0.00 0.00 0.00 100 960.0
20260903215420 57 21 1.7 3.5 0.00 0.00 0.00 100 960.0
20260903215217 57 0 0.9 3.5 0.00 0.00 0.00 100 960.1
20260903215116 58 0 0.9 2.6 0.00 0.00 0.00 100 960.0
20260903215014 58 215 0.9 2.6 0.00 0.00 0.00 100 960.0
20260903214811 58 0 0.9 2.6 0.00 0.00 0.00 100 960.0
20260903214608 58 0 0.9 1.7 0.00 0.00 0.00 100 960.1
20260903214507 58 0 0.0 2.6 0.00 0.00 0.00 100 960.1
20260903214404 58 0 0.0 2.6 0.00 0.00 0.00 100 960.1
20260903214201 58 0 0.0 1.7 0.00 0.00 0.00 100 960.1
20260903213957 58 0 0.0 2.6 0.00 0.00 0.00 100 960.2
20260903213857 58 0 0.9 3.5 0.00 0.00 0.00 100 960.1
20260903213754 58 0 0.9 3.5 0.00 0.00 0.00 100 960.1
20260903213551 58 0 0.9 3.5 0.00 0.00 0.00 100 960.1
20260903213348 58 0 0.9 3.5 0.00 0.00 0.00 100 960.1
20260903213247 58 0 0.9 3.5 0.00 0.00 0.00 100 960.0
20260903213145 58 0 0.9 3.5 0.00 0.00 0.00 100 960.0
20260903212941 58 0 0.9 3.5 0.00 0.00 0.00 100 960.0
20260903212738 59 0 0.9 2.6 0.00 0.00 0.00 100 960.1
20260903212638 59 0 0.9 2.6 0.00 0.00 0.00 100 960.1
20260903212536 59 0 0.9 2.6 0.00 0.00 0.00 100 960.0
20260903212333 59 0 0.9 2.6 0.00 0.00 0.00 100 960.2
20260903212130 59 0 0.9 2.6 0.00 0.00 0.00 100 960.0
20260903212029 60 241 0.9 7.0 0.00 0.00 0.00 100 960.0
20260903211927 59 234 0.9 7.0 0.00 0.00 0.00 100 960.1
20260903211724 59 234 1.7 7.0 0.00 0.00 0.00 100 960.0
20260903211521 59 0 0.9 4.3 0.00 0.00 0.00 100 960.0
20260903211420 59 0 0.9 4.3 0.00 0.00 0.00 100 960.0
20260903211317 59 0 0.0 2.6 0.00 0.00 0.00 100 960.0
20260903211114 59 234 0.9 7.0 0.00 0.00 0.00 100 960.0
20260903210911 59 220 0.9 7.0 0.00 0.00 0.00 100 959.9
20260903210810 59 224 0.9 7.0 0.00 0.00 0.00 100 959.9
20260903210708 59 222 0.9 3.5 0.00 0.00 0.00 100 960.1
20260903210504 60 230 0.9 3.5 0.00 0.00 0.00 100 960.0
20260903210248 60 229 0.9 4.3 0.00 0.00 0.00 100 959.9
20260903210148 61 232 0.9 4.3 0.00 0.00 0.00 100 959.9
20260903210045 61 254 0.9 6.1 0.00 0.00 0.00 100 959.9
20260903205842 61 244 0.9 6.1 0.00 0.00 0.00 100 959.9
20260903205639 61 229 0.9 4.3 0.00 0.00 0.00 100 960.0
20260903205538 61 237 1.7 4.3 0.00 0.00 0.00 100 959.9
20260903205435 61 274 1.7 4.3 0.00 0.00 0.00 100 959.9
20260903205232 60 286 1.7 3.5 0.00 0.00 0.00 100 960.0
20260903205029 60 258 0.9 3.5 0.00 0.00 0.00 100 960.0
20260903204827 59 0 0.9 2.6 0.00 0.00 0.00 100 960.1
20260903204624 60 169 1.7 3.5 0.00 0.00 0.00 100 960.0
20260903204421 60 146 1.7 3.5 0.00 0.00 0.00 100 959.9
20260903204320 60 146 1.7 3.5 0.00 0.00 0.00 100 959.8
20260903204218 60 150 1.7 3.5 0.00 0.00 0.00 100 959.9
20260903204016 61 136 1.7 3.5 0.00 0.00 0.00 100 959.9
20260903203812 61 91 2.6 5.2 0.00 0.00 0.00 100 960.0
20260903203711 61 91 2.6 5.2 0.00 0.00 0.00 100 960.0
20260903203609 61 89 1.7 5.2 0.00 0.00 0.00 100 960.1
20260903203406 61 110 1.7 3.5 0.00 0.00 0.00 100 960.0
20260903203202 60 105 1.7 2.6 0.00 0.00 0.00 100 960.1
20260903203101 60 114 0.9 3.5 0.00 0.00 0.00 100 960.0
20260903203000 60 130 0.9 3.5 0.00 0.00 0.00 100 960.1
20260903202756 60 0 0.9 4.3 0.00 0.00 0.00 100 960.1
20260903202553 61 312 1.7 5.2 0.00 0.00 0.00 100 960.2
20260903202452 61 316 1.7 5.2 0.00 0.00 0.00 100 960.1
20260903202350 61 306 1.7 5.2 0.00 0.00 0.00 100 960.1
20260903202146 61 10 1.7 2.6 0.00 0.00 0.00 100 960.1
20260903201943 61 340 1.7 3.5 0.00 0.00 0.00 100 960.0
20260903201844 62 337 0.9 3.5 0.00 0.00 0.00 100 960.0
20260903201740 62 317 0.9 3.5 0.00 0.00 0.00 100 960.1
20260903201537 62 348 0.9 4.3 0.00 0.00 0.00 100 959.9
20260903201333 61 6 0.9 4.3 0.00 0.00 0.00 100 960.0
20260903201234 62 0 0.9 1.7 0.00 0.00 0.00 100 960.0
20260903201131 62 0 0.9 1.7 0.00 0.00 0.00 100 960.1
20260903200928 62 355 1.7 2.6 0.00 0.00 0.00 100 960.0
20260903200724 62 355 0.9 2.6 0.00 0.00 0.00 100 960.2
20260903200623 62 344 0.9 5.2 0.00 0.00 0.00 100 960.1
20260903200521 62 270 1.7 8.7 0.00 0.00 0.00 100 960.1
20260903200318 63 257 3.5 13.0 0.00 0.00 0.00 100 960.2
20260903200115 63 244 4.3 14.8 0.00 0.00 0.00 100 960.0
20260903200014 64 252 4.3 14.8 0.00 0.00 0.00 100 960.0
20260903195911 64 253 5.2 14.8 0.00 0.00 0.00 100 960.1
20260903195707 64 270 4.3 13.9 0.00 0.00 0.00 100 960.0
20260903195504 62 276 2.6 13.9 0.00 0.00 0.00 100 960.1
20260903195404 62 262 1.7 5.2 0.00 0.00 0.00 100 960.1
20260903195301 62 246 1.7 6.1 0.00 0.00 0.00 100 960.1
20260903195058 62 234 0.9 6.1 0.00 0.00 0.00 100 960.1
20260903194855 62 230 0.9 2.6 0.00 0.00 0.00 100 960.0
20260903194754 63 240 0.9 6.1 0.00 0.00 0.00 100 960.2
20260903194652 63 285 1.7 6.1 0.00 0.00 0.00 100 960.2
20260903194449 63 269 3.5 10.4 0.00 0.00 0.00 100 960.2
20260903194246 64 265 4.3 10.4 0.00 0.00 0.00 100 960.1
20260903194145 64 273 5.2 10.4 0.00 0.00 0.00 100 960.2
20260903194042 63 270 5.2 10.4 0.00 0.00 0.00 100 960.1
20260903193839 62 261 4.3 10.4 0.00 0.00 0.00 100 960.1
20260903193636 62 244 2.6 9.6 0.00 0.00 0.00 100 960.2
20260903193535 62 265 2.6 9.6 0.00 0.00 0.00 100 960.1
20260903193432 62 268 3.5 14.8 0.00 0.00 0.00 100 960.2
20260903193229 62 273 3.5 14.8 0.00 0.00 0.00 100 960.2
20260903193025 58 0 0.9 7.8 0.00 0.00 0.00 100 960.1
20260903192925 59 0 0.9 3.5 0.00 0.00 0.00 100 960.3
20260903192822 59 0 0.9 4.3 0.00 0.00 0.00 100 960.2
20260903192619 59 244 0.9 4.3 0.00 0.00 0.00 100 960.2
20260903192415 59 242 0.9 3.5 0.00 0.00 0.00 100 960.1
20260903192315 59 0 0.9 3.5 0.00 0.00 0.00 100 960.2
20260903192213 59 0 0.9 3.5 0.00 0.00 0.00 100 960.2
20260903192009 59 0 0.9 3.5 0.00 0.00 0.00 100 960.3
20260903191806 60 0 0.9 2.6 0.00 0.00 0.00 100 960.3
20260903191705 60 0 0.9 2.6 0.00 0.00 0.00 100 960.2
20260903191603 60 0 0.9 2.6 0.00 0.00 0.00 100 960.3
20260903191400 60 248 1.7 5.2 0.00 0.00 0.00 100 960.3
20260903191157 60 239 0.9 5.2 0.00 0.00 0.00 100 960.2
20260903191056 60 238 0.9 5.2 0.00 0.00 0.00 100 960.4
20260903190953 60 0 0.9 2.6 0.00 0.00 0.00 100 960.4
20260903190750 60 215 0.9 4.3 0.00 0.00 0.00 100 960.3
20260903190547 60 217 0.9 4.3 0.00 0.00 0.00 100 960.4
20260903190446 60 223 0.9 4.3 0.00 0.00 0.00 100 960.4
20260903190344 59 231 1.7 5.2 0.00 0.00 0.00 100 960.4
20260903190141 59 241 1.7 5.2 0.00 0.00 0.00 100 960.3
20260903185937 59 0 0.9 3.5 0.00 0.00 0.00 100 960.3
20260903185837 60 0 0.9 5.2 0.00 0.00 0.00 100 960.2
20260903185734 60 220 0.9 5.2 0.00 0.00 0.00 100 960.2
20260903185531 59 237 0.9 5.2 0.00 0.00 0.00 100 960.3
20260903185328 59 0 0.9 5.2 0.00 0.00 0.00 100 960.4
20260903185227 59 0 0.9 3.5 0.00 0.00 0.00 100 960.4
20260903185125 59 0 0.9 3.5 0.00 0.00 0.00 100 960.4
20260903184923 59 230 0.9 3.5 0.00 0.00 0.00 100 960.3
20260903184719 60 0 0.9 2.6 0.00 0.00 0.00 100 960.3
20260903184619 60 0 0.9 2.6 0.00 0.00 0.00 100 960.3
20260903184516 60 0 0.9 3.5 0.00 0.00 0.00 100 960.3
20260903184314 59 228 0.9 3.5 0.00 0.00 0.00 100 960.2
20260903184110 59 0 0.9 3.5 0.00 0.00 0.00 100 960.3
20260903184009 59 0 0.0 2.6 0.00 0.00 0.00 100 960.3
20260903183907 59 0 0.9 3.5 0.00 0.00 0.00 100 960.2
20260903183704 59 0 0.9 3.5 0.00 0.00 0.00 100 960.3
20260903183501 59 0 0.9 3.5 0.00 0.00 0.00 100 960.2
20260903183259 59 0 0.9 3.5 0.00 0.00 0.00 100 960.3
20260903183055 59 0 0.9 2.6 0.00 0.00 0.00 100 960.2
20260903182852 59 0 0.9 3.5 0.00 0.00 0.00 100 960.2
20260903182752 59 0 0.9 3.5 0.00 0.00 0.00 100 960.2
20260903182649 59 0 0.9 3.5 0.00 0.00 0.00 100 960.2
20260903182446 59 0 0.9 3.5 0.00 0.00 0.00 100 960.2
20260903182233 59 0 0.0 3.5 0.00 0.00 0.00 100 960.1
20260903182132 59 0 0.0 3.5 0.00 0.00 0.00 100 960.2
20260903182030 59 0 0.0 1.7 0.00 0.00 0.00 100 960.2
20260903181827 59 0 0.0 1.7 0.00 0.00 0.00 100 960.2
20260903181624 59 0 0.0 1.7 0.00 0.00 0.00 100 960.2
20260903181523 59 0 0.0 1.7 0.00 0.00 0.00 100 960.1
20260903181421 59 0 0.0 2.6 0.00 0.00 0.00 100 960.0
20260903181217 59 0 0.9 2.6 0.00 0.00 0.00 100 960.0
20260903181014 59 0 0.9 1.7 0.00 0.00 0.00 100 960.1
20260903180913 59 0 0.9 2.6 0.00 0.00 0.00 100 960.1
20260903180811 59 0 0.9 2.6 0.00 0.00 0.00 100 960.1
20260903180607 59 0 0.0 1.7 0.00 0.00 0.00 100 960.1
20260903180404 60 0 0.0 1.7 0.00 0.00 0.00 100 960.0
20260903180304 60 0 0.0 2.6 0.00 0.00 0.00 100 960.0
20260903180202 60 0 0.0 2.6 0.00 0.00 0.00 100 960.0
20260903175959 60 0 0.0 2.6 0.00 0.00 0.00 100 960.0
20260903175756 60 0 0.9 2.6 0.00 0.00 0.00 100 959.9
20260903175655 60 0 0.0 2.6 0.00 0.00 0.00 100 960.0
20260903175553 60 0 0.9 2.6 0.00 0.00 0.00 100 960.0
20260903175350 61 0 0.9 2.6 0.00 0.00 0.00 100 960.1
20260903175147 61 0 0.9 2.6 0.00 0.00 0.00 100 960.2
20260903175046 61 0 0.9 2.6 0.00 0.00 0.00 100 960.1
20260903174943 62 0 0.9 4.3 0.00 0.00 0.00 100 960.2
20260903174740 62 0 0.9 4.3 0.00 0.00 0.00 100 960.2
20260903174538 62 0 0.9 3.5 0.00 0.00 0.00 100 960.1
20260903174437 62 0 0.9 3.5 0.00 0.00 0.00 100 960.1
20260903174334 62 0 0.9 2.6 0.00 0.00 0.00 100 960.2
20260903174131 62 0 0.0 2.6 0.00 0.00 0.00 100 960.1
20260903173927 62 0 0.0 2.6 0.00 0.00 0.00 100 960.1
20260903173827 62 0 0.9 2.6 0.00 0.00 0.00 100 960.0
20260903173724 62 0 0.9 2.6 0.00 0.00 0.00 100 960.0
20260903173521 62 0 0.9 2.6 0.00 0.00 0.00 100 960.0
20260903173318 62 0 0.9 2.6 0.00 0.00 0.00 100 960.0
20260903173218 62 0 0.9 2.6 0.00 0.00 0.00 100 960.0
20260903173116 63 0 0.9 3.5 0.00 0.00 0.00 100 959.9
20260903172912 63 263 0.9 8.7 0.00 0.00 0.00 100 960.1
20260903172709 64 260 1.7 8.7 0.00 0.00 0.00 100 960.0
20260903172506 63 0 0.9 5.2 0.00 0.00 0.00 100 960.1
20260903172306 63 0 0.0 2.6 0.00 0.00 0.00 100 960.1
20260903172059 64 0 0.9 3.5 0.00 0.00 0.00 100 960.1
20260903171958 63 0 0.9 3.5 0.00 0.00 0.00 100 960.1
20260903171856 63 0 0.9 3.5 0.00 0.00 0.00 100 960.1
20260903171653 63 0 0.9 1.7 0.00 0.00 0.00 100 960.1
20260903171450 63 0 0.0 2.6 0.00 0.00 0.00 100 960.1
20260903171350 63 0 0.0 1.7 0.00 0.00 0.00 100 960.0
20260903171248 63 0 0.0 1.7 0.00 0.00 0.00 100 959.9
20260903171045 64 0 0.0 2.6 0.00 0.00 0.00 100 959.9
20260903170842 64 0 0.9 2.6 0.00 0.00 0.00 100 960.0
20260903170741 64 0 0.9 1.7 0.00 0.00 0.00 100 960.0
20260903170638 64 0 0.0 1.7 0.00 0.00 0.00 100 959.9
20260903170436 64 0 0.0 1.7 0.00 0.00 0.00 100 959.9
20260903170233 64 0 0.0 1.7 0.00 0.00 0.00 100 960.0
20260903170133 65 0 0.0 1.7 0.00 0.00 0.00 100 960.0
20260903170030 65 0 0.0 1.7 0.00 0.00 0.00 100 960.0
20260903165827 65 0 0.0 1.7 0.00 0.00 0.00 100 960.0
20260903165624 65 0 0.0 1.7 0.00 0.00 0.00 100 960.1
20260903165523 65 0 0.0 1.7 0.00 0.00 0.00 100 960.0
20260903165421 65 0 0.0 0.9 0.00 0.00 0.00 100 960.0
20260903165217 66 0 0.0 0.9 0.00 0.00 0.00 100 960.0
20260903165014 66 0 0.0 1.7 0.00 0.00 0.00 100 959.9
20260903164913 66 0 0.0 1.7 0.00 0.00 0.00 100 960.0
20260903164811 66 0 0.0 1.7 0.00 0.00 0.00 100 960.0
20260903164608 66 0 0.0 1.7 0.00 0.00 0.00 100 960.1
20260903164405 66 0 0.0 1.7 0.00 0.00 0.00 100 960.1
20260903164304 66 0 0.0 1.7 0.00 0.00 0.00 100 960.0
20260903164201 66 0 0.0 0.9 0.00 0.00 0.00 100 960.0
20260903163958 66 0 0.0 1.7 0.00 0.00 0.00 100 960.0
20260903163755 67 0 0.0 1.7 0.00 0.00 0.00 100 960.0
20260903163654 67 0 0.0 1.7 0.00 0.00 0.00 100 960.0
20260903163551 67 0 0.0 1.7 0.00 0.00 0.00 100 960.0
20260903163348 67 0 0.0 1.7 0.00 0.00 0.00 100 960.0
20260903163144 67 0 0.0 1.7 0.00 0.00 0.00 100 960.0
20260903163044 67 0 0.0 1.7 0.00 0.00 0.00 100 959.9
20260903162942 67 0 0.0 1.7 0.00 0.00 0.00 100 960.0
20260903162739 67 0 0.0 1.7 0.00 0.00 0.00 100 959.9
20260903162537 67 0 0.0 1.7 0.00 0.00 0.00 100 960.0
20260903162436 67 0 0.0 1.7 0.00 0.00 0.00 100 959.8
20260903162333 67 0 0.0 0.9 0.00 0.00 0.00 100 960.0
20260903162130 67 0 0.0 1.7 0.00 0.00 0.00 100 959.9
20260903161927 66 0 0.0 1.7 0.00 0.00 0.00 100 959.9
20260903161826 66 0 0.0 1.7 0.00 0.00 0.00 100 960.0
20260903161724 66 0 0.0 2.6 0.00 0.00 0.00 100 960.0
20260903161520 66 268 0.9 3.5 0.00 0.00 0.00 100 960.0
20260903161317 66 270 1.7 3.5 0.00 0.00 0.00 100 960.0
20260903161217 67 269 0.9 2.6 0.00 0.00 0.00 100 960.0
20260903161115 67 267 0.9 3.5 0.00 0.00 0.00 100 960.0
20260903160912 67 267 0.9 3.5 0.00 0.00 0.00 100 959.9
20260903160708 67 0 0.0 1.7 0.00 0.00 0.00 100 960.0
20260903160607 67 320 0.9 2.6 0.00 0.00 0.00 100 960.0
20260903160505 67 320 0.9 2.6 0.00 0.00 0.00 100 960.0
20260903160301 67 298 0.9 2.6 0.00 0.00 0.00 100 959.9
20260903160058 67 268 0.9 2.6 0.00 0.00 0.00 100 960.0
20260903155957 67 266 0.9 3.5 0.00 0.00 0.00 100 959.9
20260903155855 67 253 0.9 3.5 0.00 0.00 0.00 100 959.9
20260903155652 67 0 0.9 3.5 0.00 0.00 0.00 100 959.9
20260903155448 68 0 0.0 3.5 0.00 0.00 0.00 100 959.9
20260903155348 68 0 0.0 1.7 0.00 0.00 0.00 100 959.9
20260903155246 68 0 0.0 1.7 0.00 0.00 0.00 100 959.9
20260903155043 68 0 0.0 2.6 0.00 0.00 0.00 100 960.0
20260903154839 68 0 0.0 3.5 0.00 0.00 0.00 100 959.9
20260903154739 68 0 0.9 3.5 0.00 0.00 0.00 100 960.0
20260903154636 68 0 0.9 3.5 0.00 0.00 0.00 100 960.0
20260903154420 68 0 0.9 2.6 0.00 0.00 0.00 100 960.0
20260903154217 68 227 0.9 3.5 0.00 0.00 0.00 100 960.0
20260903154116 68 231 0.9 3.5 0.00 0.00 0.00 100 960.1
20260903154013 68 239 0.9 3.5 0.00 0.00 0.00 100 960.1
20260903153810 68 251 0.9 3.5 0.00 0.00 0.00 100 960.2
20260903153607 68 0 0.9 2.6 0.00 0.00 0.00 100 960.1
20260903153507 67 141 0.9 4.3 0.00 0.00 0.00 100 960.1
20260903153404 67 135 1.7 4.3 0.00 0.00 0.00 100 960.2
20260903153201 67 152 2.6 4.3 0.00 0.00 0.00 100 960.1
20260903152958 67 301 2.6 4.3 0.00 0.00 0.00 100 960.0
20260903152857 67 305 2.6 4.3 0.00 0.00 0.00 100 960.1
20260903152755 67 307 2.6 4.3 0.00 0.00 0.00 100 960.1
20260903152552 67 292 1.7 4.3 0.00 0.00 0.00 100 960.1
20260903152349 67 274 1.7 4.3 0.00 0.00 0.00 100 960.1
20260903152248 67 278 1.7 4.3 0.00 0.00 0.00 100 960.0
20260903152146 67 287 2.6 5.2 0.00 0.00 0.00 100 960.2
20260903151942 67 305 2.6 5.2 0.00 0.00 0.00 100 960.2
20260903151740 67 305 1.7 3.5 0.00 0.00 0.00 100 960.2
20260903151639 67 298 1.7 4.3 0.00 0.00 0.00 100 960.1
20260903151536 67 284 1.7 4.3 0.00 0.00 0.00 100 960.1
20260903151333 67 299 2.6 4.3 0.00 0.00 0.00 100 960.2
20260903151130 67 295 1.7 4.3 0.00 0.00 0.00 100 960.2
20260903151029 67 277 1.7 6.1 0.00 0.00 0.00 100 960.2
20260903150927 67 262 1.7 6.1 0.00 0.00 0.00 100 960.2
20260903150724 67 282 4.3 7.0 0.00 0.00 0.00 100 960.2
20260903150520 66 294 5.2 7.0 0.00 0.00 0.00 100 960.3
20260903150420 66 299 5.2 7.0 0.00 0.00 0.00 100 960.2
20260903150317 67 313 4.3 6.1 0.00 0.00 0.00 100 960.2
20260903150114 67 314 3.5 7.0 0.00 0.00 0.00 100 960.1
20260903145911 67 321 3.5 7.0 0.00 0.00 0.00 100 960.2
20260903145810 67 319 2.6 7.0 0.00 0.00 0.00 100 960.2
20260903145707 67 306 2.6 4.3 0.00 0.00 0.00 100 960.2
20260903145504 67 276 2.6 5.2 0.00 0.00 0.00 100 960.2
20260903145301 67 302 4.3 10.4 0.00 0.00 0.00 100 960.2
20260903145200 67 301 4.3 10.4 0.00 0.00 0.00 100 960.1
20260903145057 67 302 5.2 10.4 0.00 0.00 0.00 100 960.2
20260903144854 67 300 5.2 7.8 0.00 0.00 0.00 100 960.1
20260903144651 67 312 5.2 7.8 0.00 0.00 0.00 100 960.1
20260903144551 67 317 5.2 8.7 0.00 0.00 0.00 100 960.2
20260903144447 67 319 3.5 8.7 0.00 0.00 0.00 100 960.2
20260903144244 67 321 3.5 8.7 0.00 0.00 0.00 100 960.1
20260903144041 67 330 3.5 8.7 0.00 0.00 0.00 100 960.0
20260903143838 67 326 2.6 5.2 0.00 0.00 0.00 100 960.1
20260903143634 67 282 3.5 6.1 0.00 0.00 0.00 100 960.1
20260903143431 67 261 3.5 7.0 0.00 0.00 0.00 100 960.1
20260903143330 67 262 3.5 8.7 0.00 0.00 0.00 100 960.1
20260903143228 67 271 3.5 8.7 0.00 0.00 0.00 100 960.1
20260903143025 67 296 4.3 8.7 0.00 0.00 0.00 100 960.1
20260903142822 67 319 3.5 7.0 0.00 0.00 0.00 100 960.2
20260903142721 67 313 4.3 8.7 0.00 0.00 0.00 100 960.1
20260903142619 67 311 5.2 8.7 0.00 0.00 0.00 100 960.2
20260903142415 67 291 5.2 8.7 0.00 0.00 0.00 100 960.2
20260903142212 67 285 4.3 8.7 0.00 0.00 0.00 100 960.2
20260903142111 67 285 4.3 8.7 0.00 0.00 0.00 100 960.2
20260903142009 67 288 4.3 8.7 0.00 0.00 0.00 100 960.2
20260903141806 67 290 5.2 7.8 0.00 0.00 0.00 100 960.1
20260903141604 67 287 5.2 7.8 0.00 0.00 0.00 100 960.3
20260903141503 67 284 5.2 7.8 0.00 0.00 0.00 100 960.2
20260903141400 67 282 5.2 9.6 0.00 0.00 0.00 100 960.2
20260903141157 67 284 5.2 9.6 0.00 0.00 0.00 100 960.2
20260903140954 67 294 3.5 7.0 0.00 0.00 0.00 100 960.3
20260903140853 67 304 3.5 6.1 0.00 0.00 0.00 100 960.3
20260903140750 67 311 3.5 6.1 0.00 0.00 0.00 100 960.3
20260903140547 68 298 2.6 5.2 0.00 0.00 0.00 100 960.2
20260903140344 68 287 3.5 5.2 0.00 0.00 0.00 100 960.2
20260903140243 67 288 3.5 6.1 0.00 0.00 0.00 100 960.2
20260903140141 67 289 4.3 7.0 0.00 0.00 0.00 100 960.2
20260903135937 67 292 5.2 8.7 0.00 0.00 0.00 100 960.1
20260903135734 68 288 5.2 8.7 0.00 0.00 0.00 100 960.1
20260903135634 67 288 5.2 8.7 0.00 0.00 0.00 100 960.1
20260903135531 68 287 5.2 9.6 0.00 0.00 0.00 100 960.1
20260903135328 67 287 6.1 9.6 0.00 0.00 0.00 100 960.1
20260903135125 67 298 6.1 9.6 0.00 0.00 0.00 100 960.1
20260903135024 67 301 5.2 7.8 0.00 0.00 0.00 100 960.1
20260903134922 67 301 4.3 7.0 0.00 0.00 0.00 100 960.1
20260903134718 67 287 5.2 11.3 0.00 0.00 0.00 100 960.2
20260903134515 67 292 6.1 11.3 0.00 0.00 0.00 100 960.1
20260903134415 67 298 6.1 11.3 0.00 0.00 0.00 100 960.1
20260903134313 67 299 5.2 9.6 0.00 0.00 0.00 100 960.1
20260903134110 67 300 6.1 11.3 0.00 0.00 0.00 100 960.2
20260903133907 66 309 7.0 12.2 0.00 0.00 0.00 100 960.3
20260903133806 66 312 7.0 12.2 0.00 0.00 0.00 100 960.2
20260903133704 66 315 7.0 12.2 0.00 0.00 0.00 100 960.1
20260903133500 66 307 7.0 11.3 0.00 0.00 0.00 100 960.3
20260903133257 66 304 7.0 11.3 0.00 0.00 0.00 100 960.2
20260903133156 66 307 7.0 12.2 0.00 0.00 0.00 100 960.4
20260903133053 66 311 7.0 12.2 0.00 0.00 0.00 100 960.3
20260903132850 66 314 8.7 13.9 0.00 0.00 0.00 100 960.3
20260903132648 66 313 8.7 13.9 0.00 0.00 0.00 100 960.3
20260903132546 66 311 8.7 13.9 0.00 0.00 0.00 100 960.3
20260903132444 66 306 7.8 13.0 0.00 0.00 0.00 100 960.3
20260903132240 66 309 7.0 12.2 0.00 0.00 0.00 100 960.4
20260903132037 66 305 7.8 13.9 0.00 0.00 0.00 100 960.2
20260903131834 66 301 8.7 13.9 0.00 0.00 0.00 100 960.4
20260903131631 66 299 8.7 13.9 0.00 0.00 0.00 100 960.4
20260903131428 66 300 9.6 17.4 0.00 0.00 0.00 100 960.4
20260903131327 66 300 8.7 17.4 0.00 0.00 0.00 100 960.4
20260903131225 66 302 8.7 17.4 0.00 0.00 0.00 100 960.3
20260903131022 66 302 7.0 10.4 0.00 0.00 0.00 100 960.3
20260903130819 66 303 7.0 11.3 0.00 0.00 0.00 100 960.3
20260903130718 66 302 7.8 13.9 0.00 0.00 0.00 100 960.3
20260903130616 66 302 8.7 13.9 0.00 0.00 0.00 100 960.2
20260903130403 66 310 7.8 13.9 0.00 0.00 0.00 100 960.2
20260903130200 67 308 8.7 14.8 0.00 0.00 0.00 100 960.2
20260903130100 67 304 9.6 15.6 0.00 0.00 0.00 100 960.3
20260903125957 67 301 10.4 15.6 0.00 0.00 0.00 100 960.2
20260903125754 67 298 8.7 15.6 0.00 0.00 0.00 100 960.2
20260903125551 67 294 7.0 13.0 0.00 0.00 0.00 100 960.3
20260903125451 68 289 7.0 13.0 0.00 0.00 0.00 100 960.3
20260903125348 68 286 7.8 13.0 0.00 0.00 0.00 100 960.4
20260903125145 68 289 7.8 13.0 0.00 0.00 0.00 100 960.4
20260903124942 68 291 8.7 13.0 0.00 0.00 0.00 100 960.3
20260903124841 68 294 8.7 13.0 0.00 0.00 0.00 100 960.3
20260903124739 68 291 8.7 13.0 0.00 0.00 0.00 100 960.3
20260903124535 68 296 9.6 13.9 0.00 0.00 0.00 100 960.2
20260903124332 68 294 10.4 13.9 0.00 0.00 0.00 100 960.4
20260903124232 68 295 11.3 14.8 0.00 0.00 0.00 100 960.3
20260903124129 68 293 12.2 14.8 0.00 0.00 0.00 100 960.3
20260903123926 68 289 10.4 14.8 0.00 0.00 0.00 100 960.3
20260903123723 68 288 8.7 15.6 0.00 0.00 0.00 100 960.3
20260903123623 69 294 8.7 15.6 0.00 0.00 0.00 100 960.2
20260903123520 69 296 8.7 15.6 0.00 0.00 0.00 100 960.1
20260903123317 69 292 5.2 13.9 0.00 0.00 0.00 100 960.2
20260903123115 70 249 2.6 7.8 0.00 0.00 0.00 100 960.3
20260903123014 70 252 2.6 12.2 0.00 0.00 0.00 100 960.2
20260903122912 70 262 3.5 12.2 0.00 0.00 0.00 100 960.3
20260903122709 70 274 4.3 12.2 0.00 0.00 0.00 100 960.3
20260903122505 70 261 3.5 10.4 0.00 0.00 0.00 100 960.4
20260903122406 71 249 2.6 10.4 0.00 0.00 0.00 100 960.1
20260903122305 71 251 2.6 7.8 0.00 0.00 0.00 100 960.2
20260903122059 71 250 2.6 7.8 0.00 0.00 0.00 100 960.4
20260903121856 71 279 3.5 7.8 0.00 0.00 0.00 100 960.2
20260903121755 71 282 3.5 8.7 0.00 0.00 0.00 100 960.4
20260903121653 70 289 3.5 8.7 0.00 0.00 0.00 100 960.4
20260903121450 71 266 3.5 10.4 0.00 0.00 0.00 100 960.3
20260903121247 71 253 6.1 13.9 0.00 0.00 0.00 100 960.4
20260903121146 71 249 5.2 13.9 0.00 0.00 0.00 100 960.3
20260903121044 71 250 5.2 13.9 0.00 0.00 0.00 100 960.2
20260903120841 71 244 2.6 10.4 0.00 0.00 0.00 100 960.2
20260903120638 72 0 1.7 10.4 0.00 0.00 0.00 100 960.2
20260903120537 72 0 0.9 4.3 0.00 0.00 0.00 100 960.3
20260903120435 72 0 0.9 4.3 0.00 0.00 0.00 100 960.4
20260903120232 71 0 0.9 4.3 0.00 0.00 0.00 100 960.3
20260903120028 71 182 0.9 7.0 0.00 0.00 0.00 100 960.2
20260903115825 71 183 1.7 7.0 0.00 0.00 0.00 100 960.2
20260903115622 71 236 1.7 5.2 0.00 0.00 0.00 100 960.3
20260903115419 70 303 3.5 7.0 0.00 0.00 0.00 100 960.3
20260903115319 69 324 3.5 7.0 0.00 0.00 0.00 100 960.2
20260903115216 69 338 4.3 7.0 0.00 0.00 0.00 100 960.4
20260903115013 69 288 3.5 7.0 0.00 0.00 0.00 100 960.3
20260903114810 71 254 3.5 9.6 0.00 0.00 0.00 100 960.4
20260903114709 71 248 2.6 9.6 0.00 0.00 0.00 100 960.4
20260903114607 71 230 2.6 9.6 0.00 0.00 0.00 100 960.4
20260903114404 71 151 1.7 7.0 0.00 0.00 0.00 100 960.4
20260903114200 70 343 1.7 5.2 0.00 0.00 0.00 100 960.4
20260903114100 69 328 1.7 5.2 0.00 0.00 0.00 100 960.5
20260903113957 69 309 1.7 5.2 0.00 0.00 0.00 100 960.5
20260903113754 70 258 1.7 4.3 0.00 0.00 0.00 100 960.6
20260903113551 68 256 1.7 5.2 0.00 0.00 0.00 100 960.7
20260903113451 68 262 2.6 7.0 0.00 0.00 0.00 100 960.7
20260903113348 68 270 3.5 7.8 0.00 0.00 0.00 100 960.7
20260903113145 68 276 4.3 7.8 0.00 0.00 0.00 100 960.6
20260903112941 67 276 6.1 12.2 0.00 0.00 0.00 100 960.6
20260903112841 67 289 7.0 12.2 0.00 0.00 0.00 100 960.7
20260903112738 67 292 7.8 12.2 0.00 0.00 0.00 100 960.6
20260903112536 67 304 6.1 9.6 0.00 0.00 0.00 100 960.5
20260903112332 67 296 5.2 7.8 0.00 0.00 0.00 100 960.6
20260903112231 67 299 6.1 8.7 0.00 0.00 0.00 100 960.6
20260903112129 67 300 6.1 8.7 0.00 0.00 0.00 100 960.5
20260903111926 67 299 6.1 9.6 0.00 0.00 0.00 100 960.5
20260903111723 67 301 7.0 9.6 0.00 0.00 0.00 100 960.5
20260903111623 67 310 7.0 10.4 0.00 0.00 0.00 100 960.5
20260903111520 67 315 7.8 11.3 0.00 0.00 0.00 100 960.5
20260903111317 67 325 7.0 11.3 0.00 0.00 0.00 100 960.5
20260903111114 67 331 7.0 11.3 0.00 0.00 0.00 100 960.5
20260903111013 67 330 7.0 11.3 0.00 0.00 0.00 100 960.4
20260903110911 67 326 7.0 11.3 0.00 0.00 0.00 100 960.4
20260903110708 68 319 7.0 11.3 0.00 0.00 0.00 100 960.5
20260903110505 68 306 6.1 10.4 0.00 0.00 0.00 100 960.5
20260903110404 68 300 6.1 10.4 0.00 0.00 0.00 100 960.6
20260903110302 68 293 6.1 8.7 0.00 0.00 0.00 100 960.6
20260903110058 68 298 6.1 9.6 0.00 0.00 0.00 100 960.6
20260903105855 67 303 7.0 10.4 0.00 0.00 0.00 100 960.5
20260903105652 68 309 7.0 10.4 0.00 0.00 0.00 100 960.6
20260903105449 68 303 7.0 10.4 0.00 0.00 0.00 100 960.5
20260903105246 68 311 4.3 7.0 0.00 0.00 0.00 100 960.5
20260903105145 68 318 4.3 7.0 0.00 0.00 0.00 100 960.5
20260903105042 68 323 3.5 7.0 0.00 0.00 0.00 100 960.6
20260903104839 69 314 3.5 7.0 0.00 0.00 0.00 100 960.7
20260903104636 69 295 3.5 7.0 0.00 0.00 0.00 100 960.6
20260903104433 69 242 1.7 5.2 0.00 0.00 0.00 100 960.7
20260903104230 69 284 2.6 6.1 0.00 0.00 0.00 100 960.7
20260903104027 68 289 5.2 7.8 0.00 0.00 0.00 100 960.6
20260903103926 68 294 5.2 7.8 0.00 0.00 0.00 100 960.7
20260903103824 68 298 6.1 8.7 0.00 0.00 0.00 100 960.7
20260903103621 68 308 6.1 10.4 0.00 0.00 0.00 100 960.6
20260903103417 68 299 4.3 10.4 0.00 0.00 0.00 100 960.7
20260903103316 68 299 4.3 7.8 0.00 0.00 0.00 100 960.7
20260903103214 68 293 4.3 7.8 0.00 0.00 0.00 100 960.6
20260903103011 68 306 4.3 7.8 0.00 0.00 0.00 100 960.5
20260903102807 68 327 4.3 7.0 0.00 0.00 0.00 100 960.7
20260903102707 68 342 4.3 7.8 0.00 0.00 0.00 100 960.6
20260903102551 68 357 4.3 7.8 0.00 0.00 0.00 100 960.7
20260903102348 68 14 3.5 7.8 0.00 0.00 0.00 100 960.8
20260903102145 68 334 2.6 7.0 0.00 0.00 0.00 100 960.7
20260903102044 68 306 2.6 4.3 0.00 0.00 0.00 100 960.8
20260903101942 68 295 2.6 4.3 0.00 0.00 0.00 100 960.8
20260903101740 69 264 1.7 4.3 0.00 0.00 0.00 100 960.9
20260903101537 70 253 1.7 4.3 0.00 0.00 0.00 100 961.0
20260903101436 70 0 0.9 4.3 0.00 0.00 0.00 100 961.0
20260903101334 68 0 1.7 4.3 0.00 0.00 0.00 100 961.1
20260903101131 67 6 2.6 6.1 0.00 0.00 0.00 100 961.1
20260903100927 67 7 3.5 6.1 0.00 0.00 0.00 100 961.0
20260903100827 67 11 2.6 6.1 0.00 0.00 0.00 100 961.1
20260903100724 67 11 2.6 4.3 0.00 0.00 0.00 100 961.1
20260903100521 67 18 3.5 7.0 0.00 0.00 0.00 100 961.1
20260903100318 67 34 3.5 7.0 0.00 0.00 0.00 100 961.0
20260903100218 67 42 3.5 7.0 0.00 0.00 0.00 100 961.0
20260903100116 67 40 4.3 7.0 0.00 0.00 0.00 100 961.0
20260903095913 68 47 3.5 7.0 0.00 0.00 0.00 100 961.2
20260903095710 67 57 1.7 7.0 0.00 0.00 0.00 100 961.2
20260903095609 67 44 1.7 5.2 0.00 0.00 0.00 100 961.3
20260903095507 67 36 1.7 5.2 0.00 0.00 0.00 100 961.3
20260903095306 67 37 2.6 5.2 0.00 0.00 0.00 100 961.3
20260903095101 66 51 2.6 4.3 0.00 0.00 0.00 100 961.2
20260903094857 67 49 1.7 4.3 0.00 0.00 0.00 100 961.2
20260903094654 67 54 1.7 5.2 0.00 0.00 0.00 100 961.3
20260903094451 67 51 1.7 6.1 0.00 0.00 0.00 100 961.3
20260903094350 67 28 2.6 6.1 0.00 0.00 0.00 100 961.3
20260903094248 67 10 2.6 6.1 0.00 0.00 0.00 100 961.3
20260903094045 67 359 4.3 6.1 0.00 0.00 0.00 100 961.2
20260903093842 67 356 3.5 6.1 0.00 0.00 0.00 100 961.3
20260903093741 67 347 2.6 6.1 0.00 0.00 0.00 100 961.4
20260903093639 67 341 1.7 3.5 0.00 0.00 0.00 100 961.5
20260903093435 67 45 1.7 3.5 0.00 0.00 0.00 100 961.5
20260903093232 67 98 1.7 2.6 0.00 0.00 0.00 100 961.5
20260903093131 67 86 1.7 2.6 0.00 0.00 0.00 100 961.5
20260903093029 67 63 1.7 2.6 0.00 0.00 0.00 100 961.4
20260903092826 67 21 1.7 4.3 0.00 0.00 0.00 100 961.4
20260903092623 67 26 2.6 5.2 0.00 0.00 0.00 100 961.5
20260903092421 68 30 1.7 5.2 0.00 0.00 0.00 100 961.5
20260903092218 68 45 0.9 1.7 0.00 0.00 0.00 100 961.4
20260903092014 66 14 1.7 2.6 0.00 0.00 0.00 100 961.6
20260903091914 66 7 1.7 2.6 0.00 0.00 0.00 100 961.6
20260903091811 66 357 1.7 2.6 0.00 0.00 0.00 100 961.5
20260903091609 66 356 1.7 3.5 0.00 0.00 0.00 100 961.6
20260903091406 65 0 1.7 3.5 0.00 0.00 0.00 100 961.6
20260903091304 65 12 1.7 3.5 0.00 0.00 0.00 100 961.6
20260903091202 65 9 1.7 2.6 0.00 0.00 0.00 100 961.5
20260903091000 65 15 1.7 3.5 0.00 0.00 0.00 100 961.6
20260903090757 64 6 2.6 3.5 0.00 0.00 0.00 100 961.6
20260903090657 64 3 2.6 5.2 0.00 0.00 0.00 100 961.6
20260903090554 64 0 3.5 5.2 0.00 0.00 0.00 100 961.6
20260903090351 65 358 4.3 6.1 0.00 0.00 0.00 100 961.6
20260903090148 65 357 5.2 6.1 0.00 0.00 0.00 100 961.6
20260903090047 65 357 5.2 6.1 0.00 0.00 0.00 100 961.5
20260903085945 66 356 4.3 6.1 0.00 0.00 0.00 100 961.6
20260903085741 66 350 3.5 5.2 0.00 0.00 0.00 100 961.5
20260903085538 66 15 3.5 6.1 0.00 0.00 0.00 100 961.6
20260903085438 66 18 3.5 6.1 0.00 0.00 0.00 100 961.6
20260903085335 66 19 3.5 6.1 0.00 0.00 0.00 100 961.5
20260903085132 66 359 2.6 6.1 0.00 0.00 0.00 100 961.5
20260903084929 66 33 1.7 5.2 0.00 0.00 0.00 100 961.5
20260903084829 66 57 1.7 5.2 0.00 0.00 0.00 100 961.5
20260903084726 66 64 2.6 4.3 0.00 0.00 0.00 100 961.7
20260903084523 66 42 2.6 5.2 0.00 0.00 0.00 100 961.6
20260903084319 66 17 1.7 5.2 0.00 0.00 0.00 100 961.6
20260903084219 66 1 1.7 5.2 0.00 0.00 0.00 100 961.6
20260903084116 66 340 1.7 4.3 0.00 0.00 0.00 100 961.6
20260903083913 66 318 1.7 4.3 0.00 0.00 0.00 100 961.7
20260903083709 66 281 1.7 3.5 0.00 0.00 0.00 100 961.6
20260903083609 66 0 0.9 3.5 0.00 0.00 0.00 100 961.5
20260903083507 64 344 1.7 3.5 0.00 0.00 0.00 100 961.6
20260903083304 64 8 2.6 4.3 0.00 0.00 0.00 100 961.6
20260903083100 64 10 3.5 5.2 0.00 0.00 0.00 100 961.6
20260903082959 64 10 3.5 5.2 0.00 0.00 0.00 100 961.6
20260903082857 64 10 2.6 5.2 0.00 0.00 0.00 100 961.6
20260903082654 64 27 2.6 3.5 0.00 0.00 0.00 100 961.5
20260903082451 64 21 1.7 3.5 0.00 0.00 0.00 100 961.6
20260903082351 64 17 2.6 3.5 0.00 0.00 0.00 100 961.6
20260903082248 64 5 2.6 3.5 0.00 0.00 0.00 100 961.5
20260903082045 64 333 1.7 3.5 0.00 0.00 0.00 100 961.5
20260903081842 64 332 1.7 3.5 0.00 0.00 0.00 100 961.6
20260903081741 64 357 1.7 3.5 0.00 0.00 0.00 100 961.6
20260903081638 63 7 2.6 4.3 0.00 0.00 0.00 100 961.6
20260903081435 63 37 2.6 5.2 0.00 0.00 0.00 100 961.5
20260903081232 63 38 1.7 5.2 0.00 0.00 0.00 100 961.5
20260903081131 64 40 1.7 5.2 0.00 0.00 0.00 100 961.5
20260903081029 63 20 1.7 4.3 0.00 0.00 0.00 100 961.6
20260903080826 63 15 1.7 4.3 0.00 0.00 0.00 100 961.5
20260903080622 63 3 1.7 3.5 0.00 0.00 0.00 100 961.6
20260903080522 63 350 1.7 3.5 0.00 0.00 0.00 100 961.5
20260903080420 62 357 2.6 3.5 0.00 0.00 0.00 100 961.5
20260903080217 62 13 1.7 3.5 0.00 0.00 0.00 100 961.5
20260903080013 62 46 1.7 3.5 0.00 0.00 0.00 100 961.6
20260903075912 62 48 1.7 3.5 0.00 0.00 0.00 100 961.6
20260903075810 62 48 1.7 3.5 0.00 0.00 0.00 100 961.5
20260903075606 62 33 1.7 3.5 0.00 0.00 0.00 100 961.5
20260903075403 62 5 1.7 3.5 0.00 0.00 0.00 100 961.6
20260903075306 62 0 1.7 3.5 0.00 0.00 0.00 100 961.6
20260903075200 62 5 1.7 3.5 0.00 0.00 0.00 100 961.6
20260903074957 61 13 1.7 3.5 0.00 0.00 0.00 100 961.5
20260903074754 61 351 1.7 4.3 0.00 0.00 0.00 100 961.6
20260903074640 61 344 2.6 4.3 0.00 0.00 0.00 100 961.5
20260903074537 61 340 1.7 4.3 0.00 0.00 0.00 100 961.5
20260903074334 61 340 1.7 3.5 0.00 0.00 0.00 100 961.5
20260903074132 61 355 2.6 3.5 0.00 0.00 0.00 100 961.5
20260903074031 61 1 2.6 4.3 0.00 0.00 0.00 100 961.5
20260903073927 60 2 2.6 4.3 0.00 0.00 0.00 100 961.5
20260903073725 60 2 1.7 3.5 0.00 0.00 0.00 100 961.4
20260903073521 60 359 1.7 3.5 0.00 0.00 0.00 100 961.5
20260903073420 60 347 1.7 3.5 0.00 0.00 0.00 100 961.4
20260903073318 60 340 1.7 3.5 0.00 0.00 0.00 100 961.4
20260903073114 60 343 2.6 3.5 0.00 0.00 0.00 100 961.4
20260903072911 59 348 2.6 3.5 0.00 0.00 0.00 100 961.3
20260903072810 60 349 2.6 3.5 0.00 0.00 0.00 100 961.4
20260903072708 59 347 2.6 3.5 0.00 0.00 0.00 100 961.4
20260903072504 59 346 2.6 4.3 0.00 0.00 0.00 100 961.4
20260903072301 60 342 2.6 4.3 0.00 0.00 0.00 100 961.3
20260903072201 59 347 2.6 4.3 0.00 0.00 0.00 100 961.4
20260903072058 59 356 2.6 4.3 0.00 0.00 0.00 100 961.4
20260903071854 59 4 1.7 3.5 0.00 0.00 0.00 100 961.5
20260903071651 59 3 1.7 3.5 0.00 0.00 0.00 100 961.4
20260903071550 59 3 1.7 3.5 0.00 0.00 0.00 100 961.4
20260903071448 58 2 2.6 3.5 0.00 0.00 0.00 100 961.4
20260903071244 58 356 2.6 3.5 0.00 0.00 0.00 100 961.4
20260903071041 58 13 2.6 3.5 0.00 0.00 0.00 100 961.3
20260903070940 59 20 2.6 3.5 0.00 0.00 0.00 100 961.5
20260903070838 59 26 1.7 3.5 0.00 0.00 0.00 100 961.4
20260903070636 58 10 2.6 3.5 0.00 0.00 0.00 100 961.4
20260903070433 58 354 2.6 3.5 0.00 0.00 0.00 100 961.4
20260903070332 58 4 2.6 3.5 0.00 0.00 0.00 100 961.4
20260903070229 58 9 1.7 3.5 0.00 0.00 0.00 100 961.5
20260903070026 58 8 1.7 3.5 0.00 0.00 0.00 100 961.4
20260903065823 58 351 1.7 2.6 0.00 0.00 0.00 100 961.4
20260903065722 58 349 1.7 2.6 0.00 0.00 0.00 100 961.4
20260903065620 58 350 1.7 3.5 0.00 0.00 0.00 100 961.4
20260903065416 58 351 1.7 2.6 0.00 0.00 0.00 100 961.4
20260903065214 58 353 0.9 2.6 0.00 0.00 0.00 100 961.4
20260903065113 58 1 0.9 2.6 0.00 0.00 0.00 100 961.4
20260903065011 58 0 0.9 1.7 0.00 0.00 0.00 100 961.4
20260903064808 58 7 0.9 1.7 0.00 0.00 0.00 100 961.3
20260903064605 57 8 0.9 2.6 0.00 0.00 0.00 100 961.4
20260903064402 57 349 1.7 2.6 0.00 0.00 0.00 100 961.4
20260903064159 57 341 1.7 2.6 0.00 0.00 0.00 100 961.5
20260903063956 57 342 1.7 2.6 0.00 0.00 0.00 100 961.4
20260903063855 57 341 1.7 2.6 0.00 0.00 0.00 100 961.5
20260903063753 57 342 1.7 3.5 0.00 0.00 0.00 100 961.5
20260903063550 57 341 1.7 3.5 0.00 0.00 0.00 100 961.6
20260903063346 57 343 1.7 3.5 0.00 0.00 0.00 100 961.5
20260903063245 57 344 1.7 3.5 0.00 0.00 0.00 100 961.6
20260903063143 57 351 1.7 2.6 0.00 0.00 0.00 100 961.6
20260903062940 57 357 1.7 3.5 0.00 0.00 0.00 100 961.7
20260903062736 56 357 1.7 3.5 0.00 0.00 0.00 100 961.6
20260903062636 56 357 2.6 3.5 0.00 0.00 0.00 100 961.6
20260903062534 56 355 2.6 3.5 0.00 0.00 0.00 100 961.6
20260903062330 56 355 2.6 3.5 0.00 0.00 0.00 100 961.6
20260903062127 56 2 1.7 3.5 0.00 0.00 0.00 100 961.6
20260903062026 57 0 1.7 3.5 0.00 0.00 0.00 100 961.7
20260903061924 57 359 0.9 2.6 0.00 0.00 0.00 100 961.7
20260903061721 56 359 1.7 2.6 0.00 0.00 0.00 100 961.8
20260903061518 56 4 1.7 2.6 0.00 0.00 0.00 100 961.6
20260903061314 56 1 0.9 1.7 0.00 0.00 0.00 100 961.6
20260903061111 56 0 0.9 1.7 0.00 0.00 0.00 100 961.6
20260903060907 56 350 0.9 1.7 0.00 0.00 0.00 100 961.6
20260903060807 56 0 0.0 1.7 0.00 0.00 0.00 100 961.7
20260903060704 56 0 0.0 0.9 0.00 0.00 0.00 100 961.7
20260903060501 56 0 0.0 1.7 0.00 0.00 0.00 100 961.7
20260903060258 55 345 0.9 1.7 0.00 0.00 0.00 100 961.7
20260903060157 55 348 0.9 1.7 0.00 0.00 0.00 100 961.7
20260903060055 55 353 0.9 1.7 0.00 0.00 0.00 100 961.6
20260903055851 55 349 0.9 2.6 0.00 0.00 0.00 100 961.7
20260903055647 55 1 1.7 2.6 0.00 0.00 0.00 100 961.7
20260903055547 55 3 1.7 2.6 0.00 0.00 0.00 100 961.7
20260903055445 55 355 1.7 2.6 0.00 0.00 0.00 100 961.7
20260903055241 55 338 1.7 2.6 0.00 0.00 0.00 100 961.7
20260903055037 55 338 1.7 2.6 0.00 0.00 0.00 100 961.7
20260903054937 55 340 1.7 2.6 0.00 0.00 0.00 100 961.7
20260903054835 55 334 1.7 1.7 0.00 0.00 0.00 100 961.8
20260903054631 55 325 0.9 2.6 0.00 0.00 0.00 100 961.7
20260903054428 56 0 0.9 2.6 0.00 0.00 0.00 100 961.7
20260903054327 56 113 0.9 0.9 0.00 0.00 0.00 100 961.7
20260903054225 56 113 0.9 1.7 0.00 0.00 0.00 100 961.7
20260903054022 55 105 0.9 1.7 0.00 0.00 0.00 100 961.6
20260903053819 56 115 0.9 1.7 0.00 0.00 0.00 100 961.6
20260903053718 55 0 0.9 1.7 0.00 0.00 0.00 100 961.6
20260903053615 55 0 0.0 1.7 0.00 0.00 0.00 100 961.6
20260903053411 55 0 0.0 1.7 0.00 0.00 0.00 100 961.6
20260903053208 55 0 0.0 1.7 0.00 0.00 0.00 100 961.7
20260903053108 55 0 0.0 1.7 0.00 0.00 0.00 100 961.7
20260903053006 55 0 0.0 1.7 0.00 0.00 0.00 100 961.5
20260903052803 55 172 0.9 3.5 0.00 0.00 0.00 100 961.6
20260903052600 56 170 0.9 3.5 0.00 0.00 0.00 100 961.6
20260903052459 56 172 0.9 3.5 0.00 0.00 0.00 100 961.6
20260903052356 56 181 0.9 2.6 0.00 0.00 0.00 100 961.6
20260903052153 56 0 0.0 1.7 0.00 0.00 0.00 100 961.6
20260903051950 56 175 0.9 2.6 0.00 0.00 0.00 100 961.6
20260903051849 56 170 0.9 2.6 0.00 0.00 0.00 100 961.6
20260903051654 56 154 0.9 1.7 0.00 0.00 0.00 100 961.5
20260903051451 56 130 0.9 1.7 0.00 0.00 0.00 100 961.6
20260903051350 56 128 0.9 0.9 0.00 0.00 0.00 100 961.6
20260903051248 56 130 0.0 0.9 0.00 0.00 0.00 100 961.5
20260903051045 56 0 0.0 0.9 0.00 0.00 0.00 100 961.7